Regional Weather Roundup
Issued by NWS Wilmington, NC

Home | Current Version | Previous Version | Text Only | Print | Product List | Glossary On
Versions: 1 2 3 4 5 6 7 8 9 10 11 12 13 14 15 16 17 18 19 20 21 22 23 24 25 26 27 28 29 30 31 32 33 34 35 36 37 38 39 40 41 42 43 44 45 46 47 48 49 50
000
ASUS42 KILM 220813
RWRILM
RWRILM
REGIONAL HOURLY WEATHER ROUNDUP
NATIONAL WEATHER SERVICE WILMINGTON NC
400 AM EDT FRI MAY 22 2015

NOTE: "FAIR" INDICATES FEW OR NO CLOUDS BELOW 12,000 FEET WITH NO
SIGNIFICANT WEATHER AND/OR OBSTRUCTIONS TO VISIBILITY.

...............WFO WILMINGTON COUNTY WARNING AREA...............

......COASTAL NC AND SC COUNTIES......

CITY           SKY/WX    TMP DP  RH WIND       PRES   REMARKS
WILMINGTON     MOCLDY    61  58  90 N8        30.00R
N MYRTLE BEACH CLOUDY    66  57  72 N10G20    29.99R
MYRTLE BEACH   CLOUDY    66  55  68 N17       30.01R

......INLAND NC AND SC COUNTIES.......

CITY           SKY/WX    TMP DP  RH WIND       PRES   REMARKS
LUMBERTON      CLOUDY    63  58  83 N7        30.01R
ELIZABETHTOWN  CLOUDY    61  59  93 CALM      30.01R
WHITEVILLE     CLOUDY    64  56  75 N8        30.00R
FLORENCE       CLOUDY    66  58  75 NE13G20   30.01R
DARLINGTON     CLOUDY    64  55  72 NE12      30.04R

....................REST OF NORTH CAROLINA......................

.........EASTERN NC.........

CITY           SKY/WX    TMP DP  RH WIND       PRES   REMARKS
CAPE HATTERAS  CLOUDY    61  55  81 VRB6      29.97R
JACKSONVILLE   MOCLDY    59  54  82 NW3       30.01R
MOREHEAD CITY  CLOUDY    60  57  89 N10       29.99R
KENANSVILLE    CLOUDY    59  55  89 N5        30.03R
NEW BERN       CLOUDY    60  55  83 N7        30.01S
ELIZABETH CITY CLOUDY    57  52  83 NW9       29.99R

.........CENTRAL NC.........

CITY           SKY/WX    TMP DP  RH WIND       PRES   REMARKS
RALEIGH DURHAM PTCLDY    56  52  86 CALM      30.03R
ROCKY MOUNT    CLOUDY    58  55  90 N5        30.02R
ROANOKE RAPIDS NOT AVBL
FAYETTEVILLE   CLOUDY    62  54  74 N13G22    30.02R
HOFFMAN        MOCLDY    62  51  67 N10       30.07R

.........WESTERN NC.........

CITY           SKY/WX    TMP DP  RH WIND       PRES   REMARKS
CHARLOTTE      CLOUDY    61  43  51 N12       30.06R
GREENSBORO     PTCLDY    53  46  77 N5        30.06R
HICKORY        NOT AVBL
BOONE          NOT AVBL
ASHEVILLE      NOT AVBL

.....................REST OF SOUTH CAROLINA.....................

.........EASTERN SC.........

CITY           SKY/WX    TMP DP  RH WIND       PRES   REMARKS
CHARLESTON     CLEAR     68  58  70 N3        29.96R
BEAUFORT MCAS  CLEAR     71  59  65 NW9       29.98R
HILTON HEAD    CLEAR     73  61  64 NW10G17   29.99R

.........CENTRAL SC.........

CITY           SKY/WX    TMP DP  RH WIND       PRES   REMARKS
COLUMBIA       MOCLDY    69  47  45 N8        30.00R
ORANGEBURG     CLOUDY    70  57  63 N7        29.99R
SUMTER SHAW    CLOUDY    68  61  78 NE15      29.99R

.........WESTERN SC.........

CITY           SKY/WX    TMP DP  RH WIND       PRES   REMARKS
GREENVILLE     NOT AVBL
ROCK HILL      CLOUDY    61  46  57 NE9G18    30.05R
ANDERSON       MOCLDY    58  47  66 NE5       30.05R
CLEMSON        NOT AVBL
GREENWOOD      MOCLDY    59  46  62 N5        30.05R


...................COASTAL AND OFFSHORE REPORTS..................

................LOCAL PIERS AND NC RESERVE................


STATION/POSITION TIME  SKY/WX   TEMP    WIND        PRES    VSBY
                                AIR SEA DIR/SP/G
                 (UTC)          (F)     (DEG/KT/KT) (MB)    (MI)
JOHNY MRCER PIER 0700               77  340/  9/ 11 1014.8S
NC RESRV MASNBRO NOT AVBL
OCEAN CREST PIER 0802            62 75  330/  5/  9 1014.9R
SPRINGMAID  PIER 0700               75   10/ 11/ 15 1015.0R


................COASTAL AND OFFSHORE BUOYS................


STATION/POSITION TIME  SKY/WX   TEMP    WIND        PRES    VSBY
                                AIR SEA DIR/SP/G
                 (UTC)          (F)     (DEG/KT/KT) (MB)    (MI)
DIMNDSHOAL 41025 0750            65 76  350/ 17/ 21 1014.0R
WVE H/P(F/S)=  4/ 6 WND WVE H/P(F/S)=  3/ 6 SWL H/P/D(F/S/D)=  2/ 80/ 9

CAPE LOOKOUT     0800            62     340/ 11/ 15 1015.4R
ONSLOW BAY 41036 NOT AVBL
5 WRITEBCH 41038 0708            65 76  360/ 14/ 19 1015.0S
MASONBORO  41110 0719               76                N/A
WVE H/P(F/S)=  2/ 6 WND WVE H/P(F/S)=  2/ 6

WILM HARBR 41108 0711               75                N/A
WVE H/P(F/S)=  3/ 6 WND WVE H/P(F/S)=  3/ 6

27WRITEBCH 41037 0700            63 78  360/ 14/ 17   N/A
FRYING PAN 41013 0750            71 75   20/ 17/ 21 1015.0R
WVE H/P(F/S)=  4/ 6 WND WVE H/P(F/S)=  3/ 6 SWL H/P/D(F/S/D)=  2/170/ 7

SUNST NRSH 41024 NOT AVBL
CAPRS NRSH 41029 0708            76     320/ 10/ 14 1013.9R
EDISTO     41004 0750            75 76   40/ 17/ 21 1013.0R
WVE H/P(F/S)=  3/ 5 WND WVE H/P(F/S)=  2/ 5 SWL H/P/D(F/S/D)=  2/ 8



..........OFFSHORE BUOYS BEYOND 100 NM OFFSHORE...........
.....IN A TRIANGLE---HAT TO BERMUDA TO BAHAMAS TO HAT.....


STATION/POSITION TIME  SKY/WX   TEMP    WIND        PRES    VSBY
                                AIR SEA DIR/SP/G
                 (UTC)          (F)     (DEG/KT/KT) (MB)    (MI)
150E HAT   41001 NOT AVBL
W BERMUDA  41048 0750            74 74  210/ 19/ 21 1015.8S
WVE H/P(F/S)=  4/ 5 WND WVE H/P(F/S)=  3/ 5 SWL H/P/D(F/S/D)=  2/ 70/10

ATLANTIC S 41049 0750            75 78   80/  4/  6 1021.3R
WVE H/P(F/S)=  3/10 SWL H/P/D(F/S/D)=  3/ 70/10

E BAHAMAS  41046 0750            80 81  110/ 10/ 14 1018.7S
WVE H/P(F/S)=  3/ 8 WND WVE H/P(F/S)=  2/ 5 SWL H/P/D(F/S/D)=  2/ 30/ 8

NE BAHAMAS 41047 0750            77 79  210/ 10/ 10 1018.1R
WVE H/P(F/S)=  2/ 9 WND WVE H/P(F/S)=  2/ 3 SWL H/P/D(F/S/D)=  2/ 40/ 9

120E CANVRL41010 0720            80 79  220/ 14/ 16 1015.5F

END



USA.gov is the U.S. government's official web portal to all federal, state and local government web resources and services.